Location: *
(37.5724°S, 58.0067°E)
Time: 01:57:14
(UTC+00:00)

Cosmos 1733 - Pass Details

Date: 22 June 2021
Orbit: 503 x 521 km, 82.5° (Epoch: 02 August)

Event Time Altitude Azimuth Distance (km) Brightness Sun altitude
Rises 02:30:50 0° 171° (S) 2,642 6.7 -10.2°
Reaches altitude 10° 02:33:26 10° 153° (SSE) 1,748 5.9 -9.7°
Maximum altitude 02:36:17 20° 105° (ESE) 1,243 5.9 -9.2°
Drops below altitude 10° 02:39:07 10° 56° (ENE) 1,732 7.4 -8.6°
Sets 02:41:40 0° 39° (NE) 2,610 8.0 -8.2°
